TimeEST,TemperatureF,Dew PointF,Humidity,Sea Level PressureIn,VisibilityMPH,Wind Direction,Wind SpeedMPH,Gust SpeedMPH,PrecipitationIn,Events,Conditions,WindDirDegrees,DateUTC
12:15 AM,46.0,22.6,40,30.02,10.0,NNW,9.2,17.3,N/A,,Clear,330,2012-11-09 05:15:00
12:35 AM,46.4,21.9,38,30.02,10.0,NNW,8.1,-,N/A,,Clear,330,2012-11-09 05:35:00
12:55 AM,46.4,22.6,39,30.02,10.0,NNW,9.2,-,N/A,,Clear,340,2012-11-09 05:55:00
1:15 AM,45.9,24.4,43,30.03,10.0,NNW,9.2,-,N/A,,Clear,330,2012-11-09 06:15:00
1:35 AM,45.5,25.9,46,30.04,10.0,NNW,8.1,19.6,N/A,,Clear,330,2012-11-09 06:35:00
1:55 AM,45.1,27.3,50,30.04,10.0,NW,8.1,-,N/A,,Clear,310,2012-11-09 06:55:00
2:15 AM,44.2,28.2,53,30.04,10.0,NW,5.8,-,N/A,,Clear,320,2012-11-09 07:15:00
2:35 AM,43.5,29.1,57,30.05,10.0,NW,6.9,-,N/A,,Clear,310,2012-11-09 07:35:00
2:55 AM,43.2,29.7,59,30.06,10.0,NW,5.8,-,N/A,,Clear,310,2012-11-09 07:55:00
3:15 AM,42.6,29.8,61,30.06,10.0,NW,8.1,-,N/A,,Clear,320,2012-11-09 08:15:00
3:35 AM,42.4,29.5,60,30.07,10.0,NW,6.9,-,N/A,,Clear,320,2012-11-09 08:35:00
3:55 AM,42.3,30.4,63,30.07,10.0,NW,8.1,-,N/A,,Clear,320,2012-11-09 08:55:00
4:35 AM,42.1,31.3,66,30.09,10.0,NW,9.2,-,N/A,,Clear,320,2012-11-09 09:35:00
4:55 AM,42.1,31.1,65,30.10,10.0,NW,9.2,-,N/A,,Clear,310,2012-11-09 09:55:00
5:15 AM,42.1,31.5,66,30.10,10.0,NW,9.2,16.1,N/A,,Clear,320,2012-11-09 10:15:00
5:35 AM,41.9,31.8,67,30.11,10.0,NW,8.1,-,N/A,,Clear,310,2012-11-09 10:35:00
5:55 AM,41.9,32.0,68,30.11,10.0,NW,6.9,-,N/A,,Clear,310,2012-11-09 10:55:00
6:15 AM,41.7,32.0,68,30.12,10.0,NW,8.1,-,N/A,,Clear,310,2012-11-09 11:15:00
6:55 AM,41.5,32.2,69,30.14,10.0,NW,5.8,-,N/A,,Clear,310,2012-11-09 11:55:00
7:15 AM,41.9,32.5,69,30.15,10.0,NW,5.8,-,N/A,,Clear,310,2012-11-09 12:15:00
7:35 AM,42.6,33.1,69,30.16,10.0,NW,5.8,-,N/A,,Clear,310,2012-11-09 12:35:00
7:55 AM,43.7,33.6,68,30.17,10.0,WNW,6.9,-,N/A,,Clear,300,2012-11-09 12:55:00
8:15 AM,44.4,33.6,66,30.17,10.0,NW,9.2,-,N/A,,Clear,310,2012-11-09 13:15:00
8:35 AM,45.1,33.6,64,30.17,10.0,NW,6.9,-,N/A,,Clear,310,2012-11-09 13:35:00
8:55 AM,46.2,34.2,63,30.18,10.0,NW,8.1,-,N/A,,Clear,310,2012-11-09 13:55:00
9:15 AM,46.9,34.5,62,30.18,10.0,NW,5.8,-,N/A,,Clear,310,2012-11-09 14:15:00
9:55 AM,48.4,35.2,60,30.20,10.0,NW,5.8,-,N/A,,Clear,320,2012-11-09 14:55:00
10:15 AM,49.3,35.4,59,30.20,10.0,NW,5.8,17.3,N/A,,Clear,320,2012-11-09 15:15:00
10:35 AM,50.2,36.0,58,30.20,10.0,NW,6.9,-,N/A,,Clear,320,2012-11-09 15:35:00
10:55 AM,50.2,36.1,59,30.20,10.0,NW,10.4,-,N/A,,Clear,310,2012-11-09 15:55:00
11:15 AM,50.4,36.0,58,30.20,10.0,NW,8.1,-,N/A,,Clear,310,2012-11-09 16:15:00
11:35 AM,50.7,35.1,55,30.19,10.0,NW,6.9,-,N/A,,Clear,310,2012-11-09 16:35:00
11:55 AM,51.4,34.3,52,30.18,10.0,WNW,5.8,-,N/A,,Clear,300,2012-11-09 16:55:00
12:15 PM,52.2,33.3,49,30.18,10.0,NW,6.9,-,N/A,,Clear,320,2012-11-09 17:15:00
12:35 PM,52.5,29.5,41,30.18,10.0,WNW,6.9,-,N/A,,Clear,300,2012-11-09 17:35:00
12:55 PM,53.1,26.4,36,30.17,10.0,WNW,4.6,-,N/A,,Clear,290,2012-11-09 17:55:00
1:15 PM,53.2,28.6,39,30.17,10.0,NW,5.8,-,N/A,,Clear,310,2012-11-09 18:15:00
1:35 PM,52.5,32.2,46,30.17,10.0,West,4.6,-,N/A,,Clear,270,2012-11-09 18:35:00
1:55 PM,52.2,31.5,45,30.17,10.0,WNW,9.2,-,N/A,,Clear,290,2012-11-09 18:55:00
2:15 PM,52.5,32.5,47,30.17,10.0,West,6.9,-,N/A,,Clear,260,2012-11-09 19:15:00
2:35 PM,52.7,32.9,47,30.18,10.0,West,6.9,-,N/A,,Clear,270,2012-11-09 19:35:00
2:55 PM,52.7,33.6,48,30.18,10.0,WNW,4.6,-,N/A,,Clear,290,2012-11-09 19:55:00
3:15 PM,52.2,33.4,49,30.19,10.0,WNW,4.6,-,N/A,,Clear,290,2012-11-09 20:15:00
3:35 PM,52.0,33.8,50,30.19,10.0,West,4.6,-,N/A,,Clear,280,2012-11-09 20:35:00
3:55 PM,51.4,33.4,50,30.19,10.0,Calm,Calm,-,N/A,,Clear,0,2012-11-09 20:55:00
4:15 PM,50.9,33.6,52,30.19,10.0,West,3.5,-,N/A,,Clear,270,2012-11-09 21:15:00
4:35 PM,50.2,34.0,54,30.19,10.0,Calm,Calm,-,N/A,,Clear,0,2012-11-09 21:35:00
4:55 PM,48.4,35.2,60,30.20,10.0,Calm,Calm,-,N/A,,Clear,0,2012-11-09 21:55:00
5:15 PM,46.8,35.8,66,30.20,10.0,Calm,Calm,-,N/A,,Clear,0,2012-11-09 22:15:00
5:35 PM,46.4,34.7,64,30.21,10.0,Calm,Calm,-,N/A,,Clear,0,2012-11-09 22:35:00
7:15 PM,-9999,-9999,N/A,30.22,10.0,Calm,Calm,-,N/A,,Unknown,0,2012-11-10 00:15:00
7:35 PM,45.3,35.2,68,30.22,10.0,Calm,Calm,-,N/A,,Clear,0,2012-11-10 00:35:00
7:55 PM,45.5,35.1,67,30.22,10.0,Calm,Calm,-,N/A,,Clear,0,2012-11-10 00:55:00
8:15 PM,45.3,34.7,66,30.22,10.0,SSW,3.5,-,N/A,,Clear,200,2012-11-10 01:15:00
8:35 PM,45.5,36.1,70,30.23,10.0,Calm,Calm,-,N/A,,Clear,0,2012-11-10 01:35:00
8:55 PM,45.7,37.9,74,30.23,10.0,Calm,Calm,-,N/A,,Clear,0,2012-11-10 01:55:00
9:15 PM,45.1,37.6,75,30.24,10.0,Calm,Calm,-,N/A,,Clear,0,2012-11-10 02:15:00
9:35 PM,45.1,38.5,77,30.24,10.0,Calm,Calm,-,N/A,,Clear,0,2012-11-10 02:35:00
9:55 PM,45.1,39.2,80,30.25,10.0,WSW,3.5,-,N/A,,Clear,240,2012-11-10 02:55:00
10:15 PM,45.3,39.7,81,30.25,10.0,Calm,Calm,-,N/A,,Clear,0,2012-11-10 03:15:00
10:35 PM,46.0,41.2,83,30.25,10.0,Calm,Calm,-,N/A,,Clear,0,2012-11-10 03:35:00
10:55 PM,46.0,41.5,84,30.26,10.0,Calm,Calm,-,N/A,,Clear,0,2012-11-10 03:55:00
11:15 PM,46.0,41.0,83,30.26,10.0,Calm,Calm,-,N/A,,Clear,0,2012-11-10 04:15:00
11:35 PM,45.1,41.5,87,30.26,10.0,SW,3.5,-,N/A,,Clear,230,2012-11-10 04:35:00
11:55 PM,44.8,41.9,90,30.25,10.0,SW,3.5,-,N/A,,Clear,230,2012-11-10 04:55:00